timestamp,surface_pressure_avg,surface_temp_avg,battery_voltage,lat,long
2022-11-05 00:09:00+00:00,267.868,11.7,12.57,47.84626,-54.09684
2022-11-05 00:19:01+00:00,257.9914,11.7,12.57,47.84626,-54.09684
2022-11-05 00:29:01+00:00,249.1231,11.7,12.57,47.84626,-54.09684
2022-11-05 00:39:01+00:00,241.2314,11.7,12.57,47.84626,-54.09684
2022-11-05 00:49:01+00:00,232.4748,11.69,12.57,47.84626,-54.09684
2022-11-05 00:59:01+00:00,224.7748,11.67,12.57,47.84626,-54.09684
2022-11-05 01:09:01+00:00,219.9714,11.67,12.57,47.84626,-54.09684
2022-11-05 01:19:01+00:00,215.9731,11.67,12.57,47.84626,-54.09684
2022-11-05 01:29:01+00:00,212.2881,11.67,12.57,47.84626,-54.09684
2022-11-05 01:39:01+00:00,207.1515,11.67,12.57,47.84626,-54.09684
2022-11-05 01:49:01+00:00,200.6765,11.6,12.57,47.84626,-54.09684
2022-11-05 01:59:01+00:00,198.4698,11.5,12.57,47.84626,-54.09684
2022-11-05 02:09:01+00:00,198.7914,11.3,12.57,47.84626,-54.09684
2022-11-05 02:19:00+00:00,193.5631,11.2,12.57,47.84626,-54.09684
2022-11-05 02:29:00+00:00,189.8098,10.9,12.57,47.84626,-54.09684
2022-11-05 02:39:00+00:00,192.0431,10.75,12.57,47.84626,-54.09684
2022-11-05 02:49:00+00:00,190.2331,10.8,12.57,47.84626,-54.09684
2022-11-05 02:59:00+00:00,187.1581,10.6,12.57,47.84626,-54.09684
2022-11-05 03:09:00+00:00,191.8665,10.76,12.57,47.84626,-54.09684
2022-11-05 03:19:00+00:00,193.9998,10.9,12.57,47.84626,-54.09684
2022-11-05 03:29:00+00:00,188.6898,10.7,12.57,47.84626,-54.09684
2022-11-05 03:39:00+00:00,190.3765,10.6,12.57,47.84626,-54.09684
2022-11-05 03:49:00+00:00,195.0181,10.66,12.57,47.84626,-54.09684
2022-11-05 03:59:00+00:00,190.3598,10.89,12.57,47.84626,-54.09684
2022-11-05 04:09:00+00:00,188.2165,10.6,12.57,47.84626,-54.09684
2022-11-05 04:19:00+00:00,195.8365,10.5,12.57,47.84626,-54.09684
2022-11-05 04:29:00+00:00,198.2414,10.65,12.57,47.84626,-54.09684
2022-11-05 04:39:00+00:00,195.7215,10.3,12.57,47.84626,-54.09684
2022-11-05 04:49:00+00:00,199.8414,10.49,12.57,47.84626,-54.09684
2022-11-05 04:59:00+00:00,209.0215,10.98,12.57,47.84626,-54.09684
2022-11-05 05:09:00+00:00,212.4648,11.26,12.57,47.84626,-54.09684
2022-11-05 05:19:00+00:00,216.8515,11.3,12.49,47.84626,-54.09684
2022-11-05 05:29:00+00:00,226.0981,11.3,12.49,47.84626,-54.09684
2022-11-05 05:39:00+00:00,233.2548,11.38,12.49,47.84626,-54.09684
2022-11-05 05:49:00+00:00,238.0931,11.4,12.49,47.84626,-54.09684
2022-11-05 05:59:00+00:00,245.1031,11.5,12.49,47.84626,-54.09684
2022-11-05 06:09:00+00:00,254.5531,11.5,12.49,47.84626,-54.09684
2022-11-05 06:19:00+00:00,259.2747,11.5,12.49,47.84626,-54.09684
2022-11-05 06:29:00+00:00,262.9781,11.5,12.49,47.84626,-54.09684
2022-11-05 06:39:00+00:00,271.4247,11.5,12.49,47.84626,-54.09684
2022-11-05 06:49:00+00:00,281.3847,11.5,12.49,47.84626,-54.09684
2022-11-05 06:59:00+00:00,284.1931,11.5,12.49,47.84626,-54.09684
2022-11-05 07:09:00+00:00,286.5997,11.51,12.49,47.84626,-54.09684
2022-11-05 07:19:00+00:00,291.5931,11.57,12.49,47.84626,-54.09684
2022-11-05 07:29:00+00:00,296.8447,11.58,12.49,47.84626,-54.09684
2022-11-05 07:39:00+00:00,298.8013,11.58,12.49,47.84626,-54.09684
2022-11-05 07:49:00+00:00,301.3914,11.57,12.49,47.84626,-54.09684
2022-11-05 07:59:00+00:00,305.3497,11.59,12.49,47.84626,-54.09684
2022-11-05 08:09:00+00:00,306.728,11.6,12.49,47.84626,-54.09684
2022-11-05 08:19:00+00:00,307.5964,11.6,12.49,47.84626,-54.09684
2022-11-05 08:29:00+00:00,313.2679,11.6,12.49,47.84626,-54.09684
2022-11-05 08:39:00+00:00,317.3297,11.6,12.49,47.84626,-54.09684
2022-11-05 08:49:00+00:00,318.0247,11.6,12.49,47.84626,-54.09684
2022-11-05 08:59:00+00:00,320.5897,11.6,12.49,47.84626,-54.09684
2022-11-05 09:09:00+00:00,328.0846,11.6,12.49,47.84626,-54.09684
2022-11-05 09:19:00+00:00,326.7797,11.6,12.49,47.84626,-54.09684
2022-11-05 09:29:00+00:00,324.4713,11.6,12.49,47.84626,-54.09684
2022-11-05 09:39:00+00:00,328.843,11.6,12.49,47.84626,-54.09684
2022-11-05 09:49:00+00:00,333.4763,11.6,12.49,47.84626,-54.09684
2022-11-05 09:59:00+00:00,330.4429,11.6,12.49,47.84626,-54.09684
2022-11-05 10:09:00+00:00,331.3947,11.65,12.49,47.84626,-54.09684
2022-11-05 10:19:00+00:00,330.6596,11.66,12.49,47.84626,-54.09684
2022-11-05 10:29:00+00:00,329.6863,11.68,12.49,47.84626,-54.09684
2022-11-05 10:39:00+00:00,325.4013,11.68,12.49,47.84626,-54.09684
2022-11-05 10:49:00+00:00,321.0914,11.67,12.49,47.84626,-54.09684
2022-11-05 10:59:00+00:00,315.753,11.67,12.49,47.84626,-54.09684
2022-11-05 11:09:00+00:00,312.023,11.65,12.49,47.84626,-54.09684
2022-11-05 11:19:01+00:00,308.3813,11.63,12.65,47.84626,-54.09684
2022-11-05 11:29:01+00:00,303.5947,11.61,12.65,47.84626,-54.09684
2022-11-05 11:39:01+00:00,295.6281,11.6,12.65,47.84626,-54.09684
2022-11-05 11:49:01+00:00,286.6897,11.6,12.65,47.84626,-54.09684
2022-11-05 11:59:01+00:00,278.2247,11.6,12.65,47.84626,-54.09684
2022-11-05 12:09:01+00:00,272.7614,11.6,12.65,47.84626,-54.09684
2022-11-05 12:19:00+00:00,263.4398,11.6,13.68,47.84626,-54.09684
2022-11-05 12:29:00+00:00,255.6714,11.6,13.68,47.84626,-54.09684
2022-11-05 12:39:00+00:00,251.4564,11.6,13.68,47.84626,-54.09684
2022-11-05 12:49:00+00:00,247.7348,11.59,13.68,47.84626,-54.09684
2022-11-05 12:59:00+00:00,238.8564,11.58,13.68,47.84626,-54.09684
2022-11-05 13:09:00+00:00,232.0815,11.55,13.68,47.84626,-54.09684
2022-11-05 13:19:00+00:00,225.6565,11.52,13.21,47.84626,-54.09684
2022-11-05 13:29:00+00:00,217.7031,11.52,13.21,47.84626,-54.09684
2022-11-05 13:39:00+00:00,209.6248,11.5,13.21,47.84626,-54.09684
2022-11-05 13:49:00+00:00,205.8664,11.5,13.21,47.84626,-54.09684
2022-11-05 13:59:00+00:00,205.0598,11.5,13.21,47.84626,-54.09684
2022-11-05 14:09:00+00:00,203.9064,11.5,13.21,47.84626,-54.09684
2022-11-05 14:19:00+00:00,199.9115,11.55,14.96,47.84626,-54.09684
2022-11-05 14:29:00+00:00,194.0431,11.57,14.96,47.84626,-54.09684
2022-11-05 14:39:00+00:00,190.8881,11.52,14.96,47.84626,-54.09684
2022-11-05 14:49:00+00:00,189.5731,11.53,14.96,47.84626,-54.09684
2022-11-05 14:59:00+00:00,186.4931,11.57,14.96,47.84626,-54.09684
2022-11-05 15:09:00+00:00,183.4148,11.59,14.96,47.84626,-54.09684
2022-11-05 15:19:00+00:00,182.7598,11.6,14.4,47.84626,-54.09684
2022-11-05 15:29:00+00:00,182.0915,11.6,14.4,47.84626,-54.09684
2022-11-05 15:39:00+00:00,181.4931,11.6,14.4,47.84626,-54.09684
2022-11-05 15:49:00+00:00,179.6865,11.6,14.4,47.84626,-54.09684
2022-11-05 15:59:00+00:00,181.9664,11.6,14.4,47.84626,-54.09684
2022-11-05 16:09:00+00:00,187.4865,11.6,14.4,47.84626,-54.09684
2022-11-05 16:19:00+00:00,188.8465,11.6,13.13,47.84626,-54.09684
2022-11-05 16:29:00+00:00,188.9931,11.6,13.13,47.84626,-54.09684
2022-11-05 16:39:00+00:00,193.5914,11.6,13.13,47.84626,-54.09684
2022-11-05 16:49:00+00:00,199.0865,11.6,13.13,47.84626,-54.09684
2022-11-05 16:59:00+00:00,203.6881,11.6,13.13,47.84626,-54.09684
2022-11-05 17:09:00+00:00,212.4414,11.6,13.13,47.84626,-54.09684
2022-11-05 17:19:00+00:00,219.0931,11.6,13.53,47.84626,-54.09684
2022-11-05 17:29:00+00:00,220.0948,11.6,13.53,47.84626,-54.09684
2022-11-05 17:39:00+00:00,222.2014,11.61,13.53,47.84626,-54.09684
2022-11-05 17:49:00+00:00,233.6581,11.63,13.53,47.84626,-54.09684
2022-11-05 17:59:00+00:00,240.9464,11.66,13.53,47.84626,-54.09684
2022-11-05 18:09:00+00:00,243.7847,11.64,13.53,47.84626,-54.09684
2022-11-05 18:19:00+00:00,250.8615,11.65,12.97,47.84626,-54.09684
2022-11-05 18:29:00+00:00,262.1348,11.67,12.97,47.84626,-54.09684
2022-11-05 18:39:00+00:00,264.6864,11.69,12.97,47.84626,-54.09684
2022-11-05 18:49:00+00:00,264.4948,11.69,12.97,47.84626,-54.09684
2022-11-05 18:59:00+00:00,272.0598,11.7,12.97,47.84626,-54.09684
2022-11-05 19:09:00+00:00,286.3348,11.7,12.97,47.84626,-54.09684
2022-11-05 19:19:01+00:00,287.3931,11.7,12.73,47.84626,-54.09684
2022-11-05 19:29:01+00:00,286.1264,11.7,12.73,47.84626,-54.09684
2022-11-05 19:39:01+00:00,295.0713,11.7,12.73,47.84626,-54.09684
2022-11-05 19:49:01+00:00,306.2347,11.7,12.73,47.84626,-54.09684
2022-11-05 19:59:01+00:00,303.988,11.7,12.73,47.84626,-54.09684
2022-11-05 20:09:01+00:00,307.6813,11.7,12.73,47.84626,-54.09684
2022-11-05 20:19:00+00:00,320.7964,11.7,12.65,47.84626,-54.09684
2022-11-05 20:29:00+00:00,332.028,11.7,12.65,47.84626,-54.09684
2022-11-05 20:39:00+00:00,332.4229,11.7,12.65,47.84626,-54.09684
2022-11-05 20:49:00+00:00,332.983,11.7,12.65,47.84626,-54.09684
2022-11-05 20:59:00+00:00,340.3279,11.7,12.65,47.84626,-54.09684
2022-11-05 21:09:00+00:00,344.5847,11.7,12.65,47.84626,-54.09684
2022-11-05 21:19:00+00:00,343.5397,11.7,12.65,47.84626,-54.09684
2022-11-05 21:29:00+00:00,345.8729,11.7,12.65,47.84626,-54.09684
2022-11-05 21:39:00+00:00,358.3846,11.7,12.65,47.84626,-54.09684
2022-11-05 21:49:00+00:00,362.0062,11.7,12.65,47.84626,-54.09684
2022-11-05 21:59:00+00:00,355.153,11.7,12.65,47.84626,-54.09684
2022-11-05 22:09:00+00:00,356.3713,11.7,12.65,47.84626,-54.09684
2022-11-05 22:19:00+00:00,365.0079,11.7,12.65,47.84626,-54.09684
2022-11-05 22:29:00+00:00,362.3747,11.7,12.65,47.84626,-54.09684
2022-11-05 22:39:00+00:00,350.528,11.7,12.65,47.84626,-54.09684
2022-11-05 22:49:00+00:00,348.833,11.7,12.65,47.84626,-54.09684
2022-11-05 22:59:00+00:00,347.9713,11.7,12.65,47.84626,-54.09684
2022-11-05 23:09:00+00:00,340.2196,11.7,12.65,47.84626,-54.09684
2022-11-05 23:19:01+00:00,335.2097,11.7,12.57,47.84626,-54.09684
2022-11-05 23:29:01+00:00,332.9012,11.7,12.57,47.84626,-54.09684
2022-11-05 23:39:01+00:00,326.4713,11.7,12.57,47.84626,-54.09684
2022-11-05 23:49:01+00:00,316.7697,11.7,12.57,47.84626,-54.09684
2022-11-05 23:59:01+00:00,312.0297,11.7,12.57,47.84626,-54.09684
